Location: Ponte Samoggia
(44.5667°N, 11.1333°E)
Time: 22:12:35
(UTC+00:00)

Meteor 1-29 - Pass Details

Date: 26 May 2022
Orbit: 423 x 441 km, 97.7° (Epoch: 29 June)

Event Time Altitude Azimuth Distance (km) Brightness Sun altitude
Rises 03:02:15 0° 14° (NNE) 2,394 7.5 -6.0°
Reaches altitude 10° 03:04:16 10° 16° (NNE) 1,523 6.5 -5.7°
Maximum altitude 03:07:31 76° 102° (ESE) 443 3.0 -5.3°
Drops below altitude 10° 03:10:45 10° 189° (S) 1,513 5.2 -4.8°
Sets 03:12:44 0° 191° (S) 2,375 6.1 -4.5°
